Погода в Мамадыше

Россия / Республика Татарстан     55°43′03″N   51°24′36″E
темп.,
°C
ветер,
м/с
пор.,
м/с
влажн.,
%
обл.,
%
осадки,
мм/ч
давл.,
гПа
погр.,
м
23 сентября, чт
чт2300:00+9юв4889100 0.2 1023317
03:00+8вюв3696100 0.5 1023219
06:00+9вюв3692100 0.0 1023223
09:00+10вюв4885100 0.1 1024304
12:00+12юв5973100 0.0 1024561
15:00+11вюв4874100 0.0 1023297
18:00+10в3970100 0.1 1022233
21:00+10вюв2666100 0.1 1021148
24 сентября, пт
пт2400:00+12вюв51359100 0.0 1019423
03:00+10ююв41262100 0.2 1019627
06:00+9юв61480100 0.9 1019662
09:00+12ююв61366100 0.9 1018929
12:00+13ююв61250100 0.0 1018966
15:00+10юв51477100 0.6 1017704
18:00+9ююв61488100 1.3 1017688
21:00+8юв51393100 4.8 1017686
25 сентября, сб
сб2500:00+8юв51190100 2.5 1017509
03:00+8вюв61286100 2.9 1015448
06:00+8вюв31083100 0.6 1013406
09:00+7в3788100 3.1 1013469
12:00+8в3779100 0.3 1012334
15:00+8юв4879100 0.3 1012368
18:00+7в2586100 0.0 1012198
21:00+8всв1182100 0.0 101116
26 сентября, вс
вс2600:00+8всв1183100 0.0 101021
03:00+8св2284100 0.0 101051
06:00+8св2587100 0.0 1009128
09:00+10всв3474100 0.0 1008350
12:00+13в3456100 0.0 1008717
15:00+14всв565531 0.0 1009721
18:00+10всв6128234 0.0 1009412
21:00+9в71277100 0.0 1010455
27 сентября, пн
пн2700:00+10в71264100 0.0 1010544
03:00+8в81382100 0.0 1012614
06:00+7всв71089100 0.3 1014908
09:00+4всв71195100 1.9 1016772
12:00+7всв7116273 0.1 1018934
15:00+9всв71057100 0.1 10191196
18:00+6всв612535 0.0 1021443
21:00+4всв513615 0.0 1023368